Indianapolis, IN

6:37 AM EST on November 20, 2019 (GMT -0500)
Indianapolis International

Weather History for KIND - September, 2019

Change the Weather History Date:

Monday, September 16, 2019

  Actual Average Record
Temperature  
Mean Temperature 79 °F 67 °F  
Max Temperature 89 °F 78 °F 96 °F (1939)
Min Temperature 68 °F 56 °F 39 °F (1984)
Degree Days  
Heating Degree Days 0 2  
Month to date heating degree days 0 15  
Since 1 July heating degree days 0 19  
Cooling Degree Days 14 4  
Month to date cooling degree days 140 92  
Year to date cooling degree days 1179 1013  
Growing Degree Days 28 (Base 50)    
Moisture  
Dew Point 66 °F    
Average Humidity 65    
Maximum Humidity 84    
Minimum Humidity 46    
Precipitation  
Precipitation 0.00 in 0.09 in 2.53 in (1996)
Month to date precipitation 0.01 1.65  
Year to date precipitation 36.56 30.98  
Snow  
Snow 0.00 in 0.00 in 0.00 in ()
Month to date snowfall 0.0 0.0  
Since 1 July snowfall 0.0 0.0  
Since 1 September snowfall 0.0 0.0  
Snow Depth 0.00 in    
Sea Level Pressure  
Sea Level Pressure 30.05 in    
Wind  
Wind Speed 8 mph (NW)    
Max Wind Speed 16 mph    
Max Gust Speed 22 mph    
Visibility 10 miles    
Events      
T = Trace of Precipitation, MM = Missing Value Source: NWS Daily Summary

Daily Weather History Graph

Daily Weather History Graph

Search for Another Location

Airport or City:

Astronomy

Sep. 16, 2019 Rise Set
Actual Time 7:26 AM EDT 7:52 PM EDT
Civil Twilight 6:59 AM EDT 8:19 PM EDT
Nautical Twilight 6:28 AM EDT 8:51 PM EDT
Astronomical Twilight 5:55 AM EDT 9:23 PM EDT
Moon 9:27 PM EDT (9/16) 9:33 AM EDT (9/16)
Length of Visible Light 13h 19m
Length of Day
12h 25m
Waning Gibbous, 94% of the Moon is Illuminated
Sep 16
Waning Gibbous
Sep 21
Last Quarter
Sep 28
New
Oct 5
First Quarter
Oct 13
Full

Hourly Weather History & Observations

Time (EDT) Temp. Heat Index Dew Point Humidity Pressure Visibility Wind Dir Wind Speed Gust Speed Precip Events Conditions
12:54 AM 71.1 °F - 64.0 °F 78% 30.04 in 10.0 mi SW 5.8 mph - N/A   Scattered Clouds
1:54 AM 71.1 °F - 64.9 °F 81% 30.04 in 10.0 mi SW 4.6 mph - N/A   Mostly Cloudy
2:54 AM 71.1 °F - 64.9 °F 81% 30.04 in 10.0 mi SW 5.8 mph - N/A   Mostly Cloudy
3:54 AM 70.0 °F - 64.0 °F 81% 30.04 in 10.0 mi SW 6.9 mph - N/A   Scattered Clouds
4:54 AM 70.0 °F - 64.9 °F 84% 30.04 in 10.0 mi WSW 5.8 mph - N/A   Scattered Clouds
5:54 AM 70.0 °F - 64.0 °F 81% 30.04 in 10.0 mi WSW 4.6 mph - N/A   Mostly Cloudy
6:54 AM 69.1 °F - 64.0 °F 84% 30.04 in 10.0 mi West 5.8 mph - N/A   Scattered Clouds
7:54 AM 69.1 °F - 64.0 °F 84% 30.07 in 10.0 mi NW 3.5 mph - N/A   Scattered Clouds
8:54 AM 73.0 °F - 66.0 °F 79% 30.08 in 10.0 mi WNW 4.6 mph - N/A   Partly Cloudy
9:54 AM 78.1 °F - 68.0 °F 71% 30.09 in 10.0 mi NNW 6.9 mph - N/A   Partly Cloudy
10:54 AM 81.0 °F 84.1 °F 69.1 °F 67% 30.08 in 10.0 mi North 8.1 mph - N/A   Partly Cloudy
11:54 AM 84.0 °F 87.8 °F 69.1 °F 61% 30.08 in 10.0 mi NNE 6.9 mph - N/A   Scattered Clouds
12:54 PM 84.9 °F 88.8 °F 69.1 °F 59% 30.07 in 10.0 mi North 9.2 mph - N/A   Scattered Clouds
1:54 PM 86.0 °F 89.4 °F 68.0 °F 55% 30.06 in 10.0 mi NNW 4.6 mph - N/A   Scattered Clouds
2:54 PM 88.0 °F 90.7 °F 66.9 °F 49% 30.05 in 10.0 mi North 10.4 mph - N/A   Scattered Clouds
3:54 PM 87.1 °F 89.2 °F 66.0 °F 49% 30.03 in 10.0 mi NW 10.4 mph - N/A   Scattered Clouds
5:54 PM 86.0 °F 87.3 °F 64.0 °F 48% 30.01 in 10.0 mi North 9.2 mph - N/A   Partly Cloudy
6:54 PM 84.0 °F 85.8 °F 64.9 °F 53% 30.02 in 10.0 mi NNW 11.5 mph - N/A   Partly Cloudy
7:54 PM 81.0 °F 82.7 °F 64.9 °F 58% 30.03 in 10.0 mi North 9.2 mph - N/A   Partly Cloudy
8:54 PM 79.0 °F - 66.0 °F 64% 30.04 in 10.0 mi North 8.1 mph - N/A   Partly Cloudy
9:54 PM 75.9 °F - 66.0 °F 71% 30.05 in 10.0 mi NNE 8.1 mph - N/A   Partly Cloudy
10:54 PM 75.0 °F - 66.0 °F 73% 30.06 in 10.0 mi NNE 6.9 mph - N/A   Partly Cloudy
11:54 PM 73.9 °F - 64.9 °F 73% 30.06 in 10.0 mi NNE 9.2 mph - N/A   Partly Cloudy